George, South Africa

5:38 PM SAST on April 20, 2018 (GMT +0200)
George

Weather History for FAGG - December, 2011

Change the Weather History Date:

Wednesday, December 14, 2011

  Actual Average Record
Temperature  
Mean Temperature 60 °F -  
Max Temperature 66 °F 73 °F 86 °F (1999)
Min Temperature 51 °F 57 °F 51 °F (2011)
Degree Days  
Heating Degree Days 6    
Growing Degree Days 10 (Base 50)    
Moisture  
Dew Point 53 °F    
Average Humidity 80    
Maximum Humidity 94    
Minimum Humidity 59    
Precipitation  
Precipitation 0.08 in - - ()
Sea Level Pressure  
Sea Level Pressure 29.80 in    
Wind  
Wind Speed 7 mph ()    
Max Wind Speed 16 mph    
Max Gust Speed -    
Visibility 7.5 miles    
Events Rain    
Averages and records for this station are not official NWS values.
T = Trace of Precipitation, MM = Missing Value Source: Averaged Metar Reports

Daily Weather History Graph

Daily Weather History Graph

Search for Another Location

Airport or City:

Astronomy

Dec. 14, 2011 Rise Set
Actual Time 5:13 AM SAST 7:36 PM SAST
Civil Twilight 4:43 AM SAST 8:06 PM SAST
Nautical Twilight 4:08 AM SAST 8:41 PM SAST
Astronomical Twilight 3:28 AM SAST 9:21 PM SAST
Moon 10:27 PM SAST (12/14) 8:42 AM SAST (12/14)
Length of Visible Light 15h 22m
Length of Day
14h 23m
Waning Gibbous, 86% of the Moon is Illuminated
Dec 14
Waning Gibbous
Dec 18
Last Quarter
Dec 24
New
Jan 1
First Quarter
Jan 9
Full

Hourly Weather History & Observations

Time (SAST) Temp. Dew Point Humidity Pressure Visibility Wind Dir Wind Speed Gust Speed Precip Events Conditions
12:00 AM 60.8 °F 59.0 °F 94% 29.74 in 6.2 mi WNW 2.3 mph - N/A   Partly Cloudy
1:00 AM 59.0 °F 57.2 °F 94% 29.74 in 6.2 mi West 4.6 mph - N/A   Mostly Cloudy
2:00 AM 59 °F 57 °F 91% 29.75 in 25 mi NNW 4.6 mph - -  
2:00 AM 59.0 °F 57.2 °F 94% 29.74 in 6.2 mi NNW 5.8 mph - N/A   Mostly Cloudy
3:00 AM 59.0 °F 55.4 °F 88% 29.74 in - NE 5.8 mph - N/A   Clear
4:00 AM 57.2 °F 53.6 °F 88% 29.74 in - NW 8.1 mph - N/A   Clear
5:00 AM 56 °F 52 °F 83% 29.76 in 12 mi West 10.4 mph - -   Partly Cloudy
5:00 AM 55.4 °F 51.8 °F 88% 29.74 in 6.2 mi West 9.2 mph - N/A   Scattered Clouds
6:00 AM 57.2 °F 53.6 °F 88% 29.77 in 6.2 mi West 11.5 mph - N/A   Partly Cloudy
7:00 AM 59.0 °F 55.4 °F 88% 29.77 in 6.2 mi WSW 8.1 mph - N/A   Partly Cloudy
8:00 AM 62 °F 57 °F 77% 29.78 in 12 mi 3.5 mph - -   Partly Cloudy
8:00 AM 62.6 °F 55.4 °F 77% 29.77 in 6.2 mi Variable 3.5 mph - N/A   Scattered Clouds
9:00 AM 62.6 °F 53.6 °F 72% 29.77 in 6.2 mi SSW 9.2 mph - N/A   Scattered Clouds
10:00 AM 64.4 °F 53.6 °F 68% 29.77 in 6.2 mi South 8.1 mph - N/A   Scattered Clouds
11:00 AM 65 °F 54 °F 59% 29.76 in 12 mi South 9.2 mph - -   Mostly Cloudy
11:00 AM 64.4 °F 53.6 °F 68% 29.77 in 6.2 mi South 8.1 mph - N/A   Mostly Cloudy
12:00 PM 66.2 °F 55.4 °F 68% 29.77 in 6.2 mi South 9.2 mph - N/A   Scattered Clouds
1:00 PM 64.4 °F 53.6 °F 68% 29.77 in 6.2 mi SSE 10.4 mph - N/A   Mostly Cloudy
2:00 PM 62 °F 54 °F 67% 29.79 in 12 mi South 9.2 mph - -   Mostly Cloudy
2:00 PM 62.6 °F 53.6 °F 72% 29.77 in 6.2 mi South 8.1 mph - N/A   Mostly Cloudy
3:00 PM 62.6 °F 51.8 °F 68% 29.80 in 6.2 mi SSE 6.9 mph - N/A   Mostly Cloudy
4:00 PM 60.8 °F 53.6 °F 77% 29.80 in 6.2 mi SSW 16.1 mph - N/A   Mostly Cloudy
5:00 PM 56 °F 52 °F 80% 29.85 in 12 mi WSW 16.1 mph - - Rain Light Rain
5:00 PM 57.2 °F 51.8 °F 82% 29.83 in 6.2 mi WSW 13.8 mph - N/A   Mostly Cloudy
6:00 PM 57.2 °F 51.8 °F 82% 29.86 in 6.2 mi West 10.4 mph - N/A Rain Light Rain
7:00 PM 57.2 °F 53.6 °F 88% 29.86 in 6.2 mi WNW 11.5 mph - N/A   Scattered Clouds
8:00 PM 55 °F 51 °F 82% 29.90 in 12 mi West 5.8 mph - -   Scattered Clouds
8:00 PM 55.4 °F 51.8 °F 88% 29.89 in 6.2 mi West 5.8 mph - N/A   Partly Cloudy
9:00 PM 55.4 °F 50.0 °F 82% 29.92 in 6.2 mi WNW 6.9 mph - N/A   Partly Cloudy
10:00 PM 53.6 °F 48.2 °F 82% 29.92 in - WNW 6.9 mph - N/A   Clear
11:00 PM 51.8 °F 46.4 °F 82% 29.92 in - NW 4.6 mph - N/A   Clear